Time,TemperatureF,DewpointF,PressureIn,WindDirection,WindDirectionDegrees,WindSpeedMPH,WindSpeedGustMPH,Humidity,HourlyPrecipIn,Conditions,Clouds,dailyrainin,SolarRadiationWatts/m^2,SoftwareType,DateUTC
2013-02-15 00:04:00,42.9,33.9,30.27,NW,310,0.0,21.9,70,0.00,,,0.00,0.0,WUHU216CR1000,2013-02-15 08:04:00,
2013-02-15 00:09:00,42.8,33.9,30.27,NW,317,1.8,1.8,71,0.00,,,0.00,0.0,WUHU216CR1000,2013-02-15 08:09:00,
2013-02-15 00:14:00,42.9,34.0,30.27,WNW,283,0.0,1.8,71,0.00,,,0.00,0.0,WUHU216CR1000,2013-02-15 08:14:00,
2013-02-15 00:19:00,42.7,33.8,30.27,WNW,282,0.0,1.8,71,0.00,,,0.00,0.0,WUHU216CR1000,2013-02-15 08:19:00,
2013-02-15 00:24:00,42.7,33.7,30.27,West,265,0.0,1.8,70,0.00,,,0.00,0.0,WUHU216CR1000,2013-02-15 08:24:00,
2013-02-15 00:29:00,42.8,33.9,30.27,WNW,300,0.0,1.8,70,0.00,,,0.00,0.0,WUHU216CR1000,2013-02-15 08:29:00,
2013-02-15 00:34:00,42.9,34.2,30.27,East,91,1.8,2.6,71,0.00,,,0.00,0.0,WUHU216CR1000,2013-02-15 08:34:00,
2013-02-15 00:39:00,42.7,33.9,30.27,South,191,1.5,3.5,71,0.00,,,0.00,0.0,WUHU216CR1000,2013-02-15 08:39:00,
2013-02-15 00:44:00,42.6,33.7,30.27,NNW,333,0.0,3.5,71,0.00,,,0.00,0.0,WUHU216CR1000,2013-02-15 08:44:00,
2013-02-15 00:50:00,43.1,34.3,30.27,ENE,77,0.0,3.5,71,0.00,,,0.00,0.0,WUHU216CR1000,2013-02-15 08:50:00,
2013-02-15 00:55:00,42.3,33.9,30.27,WNW,287,0.0,3.5,72,0.00,,,0.00,0.0,WUHU216CR1000,2013-02-15 08:55:00,
2013-02-15 01:00:00,42.1,33.8,30.27,South,169,0.0,3.5,72,0.00,,,0.00,0.0,WUHU216CR1000,2013-02-15 09:00:00,
2013-02-15 01:05:00,42.1,33.7,30.27,SW,215,0.0,3.5,72,0.00,,,0.00,0.0,WUHU216CR1000,2013-02-15 09:05:00,
2013-02-15 01:10:00,42.0,33.6,30.27,WNW,293,0.0,3.5,72,0.00,,,0.00,0.0,WUHU216CR1000,2013-02-15 09:10:00,
2013-02-15 01:15:00,42.0,33.8,30.27,NW,316,0.0,3.5,73,0.00,,,0.00,0.0,WUHU216CR1000,2013-02-15 09:15:00,
2013-02-15 01:20:00,42.1,33.9,30.27,NE,55,0.0,3.5,73,0.00,,,0.00,0.0,WUHU216CR1000,2013-02-15 09:20:00,
2013-02-15 01:25:00,42.2,34.1,30.27,NW,312,0.0,3.5,73,0.00,,,0.00,0.0,WUHU216CR1000,2013-02-15 09:25:00,
2013-02-15 01:30:00,41.6,33.7,30.27,NW,319,0.0,3.5,73,0.00,,,0.00,0.0,WUHU216CR1000,2013-02-15 09:30:00,
2013-02-15 01:35:00,41.1,33.6,30.27,NW,308,0.0,3.5,74,0.00,,,0.00,0.0,WUHU216CR1000,2013-02-15 09:35:00,
2013-02-15 01:40:00,40.9,33.4,30.27,SSW,202,0.0,3.5,75,0.00,,,0.00,0.0,WUHU216CR1000,2013-02-15 09:40:00,
2013-02-15 01:46:00,40.8,33.4,30.27,NNW,332,0.0,3.5,75,0.00,,,0.00,0.0,WUHU216CR1000,2013-02-15 09:46:00,
2013-02-15 01:51:00,40.5,33.4,30.27,NW,312,0.0,3.5,76,0.00,,,0.00,0.0,WUHU216CR1000,2013-02-15 09:51:00,
2013-02-15 01:56:00,40.3,33.2,30.27,ESE,112,0.0,3.5,76,0.00,,,0.00,0.0,WUHU216CR1000,2013-02-15 09:56:00,
2013-02-15 02:01:00,39.6,32.9,30.27,NNW,345,0.0,3.5,76,0.00,,,0.00,0.0,WUHU216CR1000,2013-02-15 10:01:00,
2013-02-15 02:06:00,39.5,33.1,30.27,WNW,287,0.9,3.5,78,0.00,,,0.00,0.0,WUHU216CR1000,2013-02-15 10:06:00,
2013-02-15 02:11:00,39.6,33.0,30.27,West,261,1.3,3.5,77,0.00,,,0.00,0.0,WUHU216CR1000,2013-02-15 10:11:00,
2013-02-15 02:16:00,39.9,33.1,30.27,West,275,0.9,3.5,77,0.00,,,0.00,0.0,WUHU216CR1000,2013-02-15 10:16:00,
2013-02-15 02:21:00,39.9,33.0,30.27,West,277,0.0,3.5,76,0.00,,,0.00,0.0,WUHU216CR1000,2013-02-15 10:21:00,
2013-02-15 02:26:00,40.0,33.1,30.27,North,1,0.0,3.5,76,0.00,,,0.00,0.0,WUHU216CR1000,2013-02-15 10:26:00,
2013-02-15 02:31:00,39.6,33.0,30.27,NNW,339,0.0,3.5,77,0.00,,,0.00,0.0,WUHU216CR1000,2013-02-15 10:31:00,
2013-02-15 02:36:00,39.5,32.9,30.27,NW,325,0.0,3.5,77,0.00,,,0.00,0.0,WUHU216CR1000,2013-02-15 10:36:00,
2013-02-15 02:42:00,39.3,32.7,30.27,WNW,298,0.0,3.5,77,0.00,,,0.00,0.0,WUHU216CR1000,2013-02-15 10:42:00,
2013-02-15 02:47:00,39.3,32.8,30.27,NW,315,0.0,3.5,77,0.00,,,0.00,0.0,WUHU216CR1000,2013-02-15 10:47:00,
2013-02-15 02:52:00,39.0,32.8,30.27,East,91,0.0,3.5,78,0.00,,,0.00,0.0,WUHU216CR1000,2013-02-15 10:52:00,
2013-02-15 02:57:00,38.8,32.5,30.27,WNW,298,0.0,3.5,78,0.00,,,0.00,0.0,WUHU216CR1000,2013-02-15 10:57:00,
2013-02-15 03:02:00,38.5,32.4,30.24,NW,308,0.0,3.5,78,0.00,,,0.00,0.0,WUHU216CR1000,2013-02-15 11:02:00,
2013-02-15 03:07:00,38.5,32.4,30.27,West,263,0.0,3.5,78,0.00,,,0.00,0.0,WUHU216CR1000,2013-02-15 11:07:00,
2013-02-15 03:12:00,38.4,32.2,30.27,WNW,284,0.0,3.5,78,0.00,,,0.00,0.0,WUHU216CR1000,2013-02-15 11:12:00,
2013-02-15 03:17:00,38.8,32.4,30.24,WNW,299,0.0,3.5,78,0.00,,,0.00,0.0,WUHU216CR1000,2013-02-15 11:17:00,
2013-02-15 03:22:00,38.8,32.2,30.27,WSW,257,0.7,3.5,77,0.00,,,0.00,0.0,WUHU216CR1000,2013-02-15 11:22:00,
2013-02-15 03:28:00,38.8,32.1,30.24,WSW,238,0.0,3.5,77,0.00,,,0.00,0.0,WUHU216CR1000,2013-02-15 11:28:00,
2013-02-15 03:33:00,38.3,31.6,30.27,East,101,2.2,3.5,77,0.00,,,0.00,0.0,WUHU216CR1000,2013-02-15 11:33:00,
2013-02-15 03:38:00,38.1,31.9,30.27,West,264,0.0,3.5,78,0.00,,,0.00,0.0,WUHU216CR1000,2013-02-15 11:38:00,
2013-02-15 03:43:00,37.6,31.5,30.27,ESE,113,0.0,3.5,79,0.00,,,0.00,0.0,WUHU216CR1000,2013-02-15 11:43:00,
2013-02-15 03:48:00,37.8,31.7,30.27,WNW,289,0.0,3.5,79,0.00,,,0.00,0.0,WUHU216CR1000,2013-02-15 11:48:00,
2013-02-15 03:53:00,37.7,31.6,30.27,WNW,290,0.0,3.5,78,0.00,,,0.00,0.0,WUHU216CR1000,2013-02-15 11:53:00,
2013-02-15 03:58:00,37.8,31.5,30.27,NE,39,0.0,3.5,78,0.00,,,0.00,0.0,WUHU216CR1000,2013-02-15 11:58:00,
2013-02-15 04:03:00,37.9,31.7,30.27,WNW,295,0.0,3.5,78,0.00,,,0.00,0.0,WUHU216CR1000,2013-02-15 12:03:00,
2013-02-15 04:08:00,38.0,31.5,30.27,WNW,282,0.0,3.5,77,0.00,,,0.00,0.0,WUHU216CR1000,2013-02-15 12:08:00,
2013-02-15 04:13:00,38.0,31.5,30.27,East,84,0.0,3.5,77,0.00,,,0.00,0.0,WUHU216CR1000,2013-02-15 12:13:00,
2013-02-15 04:19:00,37.5,31.3,30.27,NW,314,0.0,3.5,78,0.00,,,0.00,0.0,WUHU216CR1000,2013-02-15 12:19:00,
2013-02-15 04:24:00,37.5,31.5,30.27,WSW,252,0.0,3.5,79,0.00,,,0.00,0.0,WUHU216CR1000,2013-02-15 12:24:00,
2013-02-15 04:29:00,37.6,31.3,30.27,WNW,287,0.0,3.5,78,0.00,,,0.00,0.0,WUHU216CR1000,2013-02-15 12:29:00,
2013-02-15 04:34:00,37.6,31.3,30.27,NW,312,0.7,3.5,78,0.00,,,0.00,0.0,WUHU216CR1000,2013-02-15 12:34:00,
2013-02-15 04:39:00,37.7,31.5,30.27,NW,305,0.0,3.5,78,0.00,,,0.00,0.0,WUHU216CR1000,2013-02-15 12:39:00,
2013-02-15 04:44:00,37.7,31.4,30.27,SW,219,0.0,3.5,78,0.00,,,0.00,0.0,WUHU216CR1000,2013-02-15 12:44:00,
2013-02-15 04:49:00,37.5,31.1,30.27,WNW,289,0.0,3.5,78,0.00,,,0.00,0.0,WUHU216CR1000,2013-02-15 12:49:00,
2013-02-15 04:54:00,37.6,31.1,30.27,SSE,167,1.5,3.5,77,0.00,,,0.00,0.0,WUHU216CR1000,2013-02-15 12:54:00,
2013-02-15 04:59:00,37.4,31.1,30.27,SSE,166,0.0,3.5,78,0.00,,,0.00,0.0,WUHU216CR1000,2013-02-15 12:59:00,
2013-02-15 05:04:00,37.1,31.1,30.27,NNW,336,0.0,4.6,79,0.00,,,0.00,0.0,WUHU216CR1000,2013-02-15 13:04:00,
2013-02-15 05:09:00,37.6,31.3,30.27,SW,225,0.0,4.6,78,0.00,,,0.00,0.0,WUHU216CR1000,2013-02-15 13:09:00,
2013-02-15 05:14:00,37.8,31.4,30.27,NNW,347,1.3,4.6,77,0.00,,,0.00,0.0,WUHU216CR1000,2013-02-15 13:14:00,
2013-02-15 05:19:00,37.7,31.1,30.27,West,281,0.0,4.6,77,0.00,,,0.00,0.0,WUHU216CR1000,2013-02-15 13:19:00,
2013-02-15 05:25:00,37.7,31.1,30.27,WNW,302,0.0,4.6,77,0.00,,,0.00,0.0,WUHU216CR1000,2013-02-15 13:25:00,
2013-02-15 05:30:00,37.8,31.4,30.30,NNE,26,0.0,4.6,77,0.00,,,0.00,0.0,WUHU216CR1000,2013-02-15 13:30:00,
2013-02-15 05:35:00,37.5,31.0,30.30,ENE,70,1.8,4.6,77,0.00,,,0.00,0.0,WUHU216CR1000,2013-02-15 13:35:00,
2013-02-15 05:40:00,37.4,31.1,30.27,WSW,249,0.0,4.6,78,0.00,,,0.00,0.0,WUHU216CR1000,2013-02-15 13:40:00,
2013-02-15 05:45:00,37.2,31.1,30.30,ESE,105,0.0,4.6,78,0.00,,,0.00,0.0,WUHU216CR1000,2013-02-15 13:45:00,
2013-02-15 05:50:00,36.6,30.7,30.30,NNE,16,0.0,4.6,79,0.00,,,0.00,0.0,WUHU216CR1000,2013-02-15 13:50:00,
2013-02-15 05:55:00,36.6,30.6,30.27,South,185,0.0,4.6,79,0.00,,,0.00,0.0,WUHU216CR1000,2013-02-15 13:55:00,
2013-02-15 06:00:00,36.5,30.6,30.27,East,100,0.0,4.6,79,0.00,,,0.00,0.0,WUHU216CR1000,2013-02-15 14:00:00,
2013-02-15 06:05:00,36.0,30.3,30.27,ENE,68,0.0,4.6,79,0.00,,,0.00,0.0,WUHU216CR1000,2013-02-15 14:05:00,
2013-02-15 06:10:00,36.1,30.6,30.27,South,175,0.0,4.6,80,0.00,,,0.00,0.0,WUHU216CR1000,2013-02-15 14:10:00,
2013-02-15 06:15:00,36.0,30.5,30.27,North,359,0.0,4.6,80,0.00,,,0.00,0.0,WUHU216CR1000,2013-02-15 14:15:00,
2013-02-15 06:20:00,36.3,30.6,30.27,West,268,0.0,4.6,80,0.00,,,0.00,0.0,WUHU216CR1000,2013-02-15 14:20:00,
2013-02-15 06:26:00,36.4,30.6,30.27,West,266,0.0,4.6,79,0.00,,,0.00,0.0,WUHU216CR1000,2013-02-15 14:26:00,
2013-02-15 06:31:00,36.7,30.7,30.27,East,83,0.0,4.6,79,0.00,,,0.00,0.0,WUHU216CR1000,2013-02-15 14:31:00,
2013-02-15 06:36:00,36.1,30.3,30.27,NW,321,0.4,4.6,79,0.00,,,0.00,0.0,WUHU216CR1000,2013-02-15 14:36:00,
2013-02-15 06:41:00,36.4,30.6,30.27,SW,218,0.0,4.6,79,0.00,,,0.00,0.0,WUHU216CR1000,2013-02-15 14:41:00,
2013-02-15 06:46:00,36.4,30.6,30.27,East,88,1.8,4.6,79,0.00,,,0.00,0.0,WUHU216CR1000,2013-02-15 14:46:00,
2013-02-15 06:51:00,36.1,30.4,30.30,East,88,1.3,4.6,79,0.00,,,0.00,0.0,WUHU216CR1000,2013-02-15 14:51:00,
2013-02-15 06:56:00,36.3,30.6,30.30,ENE,78,0.0,4.6,80,0.00,,,0.00,0.0,WUHU216CR1000,2013-02-15 14:56:00,
2013-02-15 07:01:00,36.1,30.6,30.30,NW,305,0.0,4.6,80,0.00,,,0.00,0.0,WUHU216CR1000,2013-02-15 15:01:00,
2013-02-15 07:06:00,36.0,30.4,30.30,ESE,110,3.1,4.6,80,0.00,,,0.00,0.0,WUHU216CR1000,2013-02-15 15:06:00,
2013-02-15 07:11:00,35.9,30.6,30.30,NE,50,0.0,4.6,81,0.00,,,0.00,0.0,WUHU216CR1000,2013-02-15 15:11:00,
2013-02-15 07:17:00,35.9,30.7,30.30,West,262,0.0,4.6,81,0.00,,,0.00,0.0,WUHU216CR1000,2013-02-15 15:17:00,
2013-02-15 07:22:00,36.3,31.0,30.30,WNW,284,0.0,4.6,81,0.00,,,0.00,0.0,WUHU216CR1000,2013-02-15 15:22:00,
2013-02-15 07:27:00,36.5,31.2,30.30,NNE,26,0.0,4.6,81,0.00,,,0.00,0.0,WUHU216CR1000,2013-02-15 15:27:00,
2013-02-15 07:32:00,36.6,31.2,30.30,WNW,287,0.0,4.6,81,0.00,,,0.00,0.0,WUHU216CR1000,2013-02-15 15:32:00,
2013-02-15 07:37:00,37.2,31.8,30.30,NW,307,0.0,4.6,81,0.00,,,0.00,0.0,WUHU216CR1000,2013-02-15 15:37:00,
2013-02-15 07:42:00,37.6,31.9,30.30,NW,308,0.9,4.6,80,0.00,,,0.00,0.0,WUHU216CR1000,2013-02-15 15:42:00,
2013-02-15 07:47:00,38.1,32.4,30.30,NW,319,0.0,4.6,80,0.00,,,0.00,0.0,WUHU216CR1000,2013-02-15 15:47:00,
2013-02-15 07:53:00,38.6,32.7,30.30,NW,324,0.0,4.6,79,0.00,,,0.00,0.0,WUHU216CR1000,2013-02-15 15:53:00,
2013-02-15 07:58:00,39.1,32.8,30.30,WNW,293,0.0,4.6,78,0.00,,,0.00,0.0,WUHU216CR1000,2013-02-15 15:58:00,
2013-02-15 08:03:00,40.0,33.1,30.30,WNW,290,0.0,4.6,76,0.00,,,0.00,0.0,WUHU216CR1000,2013-02-15 16:03:00,
2013-02-15 08:08:00,40.9,33.2,30.30,NW,312,0.0,4.6,74,0.00,,,0.00,0.0,WUHU216CR1000,2013-02-15 16:08:00,
2013-02-15 08:13:00,41.5,33.4,30.30,NW,309,0.0,4.6,73,0.00,,,0.00,0.0,WUHU216CR1000,2013-02-15 16:13:00,
2013-02-15 08:18:00,42.1,33.6,30.30,WNW,290,0.0,4.6,72,0.00,,,0.00,0.0,WUHU216CR1000,2013-02-15 16:18:00,
2013-02-15 08:23:00,42.8,33.5,30.30,NW,309,1.8,4.6,69,0.00,,,0.00,0.0,WUHU216CR1000,2013-02-15 16:23:00,
2013-02-15 08:28:00,43.8,33.8,30.30,NNW,327,1.5,4.6,68,0.00,,,0.00,0.0,WUHU216CR1000,2013-02-15 16:28:00,
2013-02-15 08:33:00,44.2,33.9,30.30,WNW,301,0.0,4.6,67,0.00,,,0.00,0.0,WUHU216CR1000,2013-02-15 16:33:00,
2013-02-15 08:38:00,44.8,34.2,30.30,East,100,0.0,4.6,66,0.00,,,0.00,0.0,WUHU216CR1000,2013-02-15 16:38:00,
2013-02-15 08:43:00,45.5,34.2,30.30,WNW,298,0.0,4.6,64,0.00,,,0.00,0.0,WUHU216CR1000,2013-02-15 16:43:00,
2013-02-15 08:49:00,46.6,34.5,30.30,WNW,299,0.0,4.6,63,0.00,,,0.00,0.0,WUHU216CR1000,2013-02-15 16:49:00,
2013-02-15 08:54:00,47.4,34.4,30.33,WNW,290,0.0,4.6,61,0.00,,,0.00,0.0,WUHU216CR1000,2013-02-15 16:54:00,
2013-02-15 08:59:00,47.8,34.8,30.33,East,93,0.0,4.6,60,0.00,,,0.00,0.0,WUHU216CR1000,2013-02-15 16:59:00,
2013-02-15 09:04:00,48.6,35.2,30.30,NE,47,0.0,4.6,60,0.00,,,0.00,0.0,WUHU216CR1000,2013-02-15 17:04:00,
2013-02-15 09:09:00,49.0,36.0,30.30,ENE,77,0.0,4.6,61,0.00,,,0.00,0.0,WUHU216CR1000,2013-02-15 17:09:00,
2013-02-15 09:14:00,49.9,38.1,30.30,NNE,23,0.0,4.6,64,0.00,,,0.00,0.0,WUHU216CR1000,2013-02-15 17:14:00,
2013-02-15 09:19:00,51.1,38.8,30.33,WNW,297,0.0,4.6,62,0.00,,,0.00,0.0,WUHU216CR1000,2013-02-15 17:19:00,
2013-02-15 09:24:00,52.0,39.5,30.33,NNE,13,0.0,4.6,62,0.00,,,0.00,0.0,WUHU216CR1000,2013-02-15 17:24:00,
2013-02-15 09:29:00,52.7,39.7,30.30,SW,234,1.3,4.6,61,0.00,,,0.00,0.0,WUHU216CR1000,2013-02-15 17:29:00,
2013-02-15 09:34:00,53.2,40.6,30.30,West,270,0.0,4.6,62,0.00,,,0.00,0.0,WUHU216CR1000,2013-02-15 17:34:00,
2013-02-15 09:40:00,53.9,40.9,30.30,West,278,0.0,4.6,61,0.00,,,0.00,0.0,WUHU216CR1000,2013-02-15 17:40:00,
2013-02-15 09:45:00,54.4,41.0,30.30,NW,320,0.0,4.6,61,0.00,,,0.00,0.0,WUHU216CR1000,2013-02-15 17:45:00,
2013-02-15 09:50:00,55.2,41.4,30.30,WNW,301,0.0,4.6,59,0.00,,,0.00,0.0,WUHU216CR1000,2013-02-15 17:50:00,
2013-02-15 09:55:00,55.9,41.7,30.30,West,268,1.1,4.6,59,0.00,,,0.00,0.0,WUHU216CR1000,2013-02-15 17:55:00,
2013-02-15 10:00:00,56.5,41.6,30.30,NW,304,2.4,4.6,58,0.00,,,0.00,0.0,WUHU216CR1000,2013-02-15 18:00:00,
2013-02-15 10:06:00,56.9,41.6,30.30,North,2,1.8,4.6,56,0.00,,,0.00,0.0,WUHU216CR1000,2013-02-15 18:06:00,
2013-02-15 10:11:00,57.3,41.2,30.30,WNW,286,0.0,4.6,55,0.00,,,0.00,0.0,WUHU216CR1000,2013-02-15 18:11:00,
2013-02-15 10:17:00,57.4,40.9,30.30,West,277,0.0,4.6,54,0.00,,,0.00,0.0,WUHU216CR1000,2013-02-15 18:17:00,
2013-02-15 10:22:00,58.0,40.5,30.30,WNW,284,0.0,4.6,52,0.00,,,0.00,0.0,WUHU216CR1000,2013-02-15 18:22:00,
2013-02-15 10:27:00,58.3,40.4,30.30,North,351,0.0,4.6,51,0.00,,,0.00,0.0,WUHU216CR1000,2013-02-15 18:27:00,
2013-02-15 10:32:00,59.0,41.0,30.30,WNW,284,0.0,4.6,51,0.00,,,0.00,0.0,WUHU216CR1000,2013-02-15 18:32:00,
2013-02-15 10:37:00,59.5,40.8,30.30,SW,227,0.0,4.6,50,0.00,,,0.00,0.0,WUHU216CR1000,2013-02-15 18:37:00,
2013-02-15 10:42:00,59.9,41.2,30.30,South,190,3.3,4.6,50,0.00,,,0.00,0.0,WUHU216CR1000,2013-02-15 18:42:00,
2013-02-15 10:48:00,60.5,40.4,30.30,SW,235,2.6,4.6,48,0.00,,,0.00,0.0,WUHU216CR1000,2013-02-15 18:48:00,
2013-02-15 10:53:00,60.8,39.2,30.30,SW,219,0.9,4.6,45,0.00,,,0.00,0.0,WUHU216CR1000,2013-02-15 18:53:00,
2013-02-15 10:58:00,60.9,40.9,30.30,West,263,3.7,4.6,48,0.00,,,0.00,0.0,WUHU216CR1000,2013-02-15 18:58:00,
2013-02-15 11:03:00,61.3,41.3,30.30,SSW,193,3.7,4.8,48,0.00,,,0.00,0.0,WUHU216CR1000,2013-02-15 19:03:00,
2013-02-15 11:08:00,61.8,41.1,30.30,WNW,296,1.5,5.9,47,0.00,,,0.00,0.0,WUHU216CR1000,2013-02-15 19:08:00,
2013-02-15 11:13:00,62.1,41.2,30.30,SW,235,2.2,5.9,46,0.00,,,0.00,0.0,WUHU216CR1000,2013-02-15 19:13:00,
2013-02-15 11:18:00,62.3,40.7,30.30,West,260,4.2,5.9,45,0.00,,,0.00,0.0,WUHU216CR1000,2013-02-15 19:18:00,
2013-02-15 11:23:00,62.5,40.0,30.30,SSW,196,2.2,5.9,43,0.00,,,0.00,0.0,WUHU216CR1000,2013-02-15 19:23:00,
2013-02-15 11:28:00,62.9,41.0,30.30,West,268,1.3,6.8,45,0.00,,,0.00,0.0,WUHU216CR1000,2013-02-15 19:28:00,
2013-02-15 11:33:00,63.1,40.4,30.30,West,259,2.6,6.8,43,0.00,,,0.00,0.0,WUHU216CR1000,2013-02-15 19:33:00,
2013-02-15 11:38:00,63.5,39.3,30.30,SSW,212,2.6,6.8,41,0.00,,,0.00,0.0,WUHU216CR1000,2013-02-15 19:38:00,
2013-02-15 11:44:00,63.9,39.4,30.30,SSE,159,2.0,6.8,41,0.00,,,0.00,0.0,WUHU216CR1000,2013-02-15 19:44:00,
2013-02-15 11:49:00,64.2,40.1,30.30,SW,219,1.8,6.8,41,0.00,,,0.00,0.0,WUHU216CR1000,2013-02-15 19:49:00,
2013-02-15 11:54:00,64.7,39.9,30.30,SE,132,0.0,6.8,40,0.00,,,0.00,0.0,WUHU216CR1000,2013-02-15 19:54:00,
2013-02-15 11:59:00,64.8,39.6,30.30,SW,216,4.6,6.8,39,0.00,,,0.00,0.0,WUHU216CR1000,2013-02-15 19:59:00,
2013-02-15 12:04:00,65.2,38.0,30.30,SW,233,2.2,6.8,37,0.00,,,0.00,0.0,WUHU216CR1000,2013-02-15 20:04:00,
2013-02-15 12:09:00,65.7,38.7,30.30,West,271,0.0,6.8,37,0.00,,,0.00,0.0,WUHU216CR1000,2013-02-15 20:09:00,
2013-02-15 12:14:00,65.4,38.2,30.30,WSW,258,4.8,6.8,37,0.00,,,0.00,0.0,WUHU216CR1000,2013-02-15 20:14:00,
2013-02-15 12:19:00,65.7,38.2,30.30,West,261,0.0,6.8,36,0.00,,,0.00,0.0,WUHU216CR1000,2013-02-15 20:19:00,
2013-02-15 12:24:00,65.8,37.6,30.30,SSE,165,2.6,6.8,35,0.00,,,0.00,0.0,WUHU216CR1000,2013-02-15 20:24:00,
2013-02-15 12:29:00,66.3,38.3,30.30,WSW,253,3.1,6.8,36,0.00,,,0.00,0.0,WUHU216CR1000,2013-02-15 20:29:00,
2013-02-15 12:34:00,66.4,37.8,30.27,South,175,4.4,6.8,35,0.00,,,0.00,0.0,WUHU216CR1000,2013-02-15 20:34:00,
2013-02-15 12:39:00,66.7,38.6,30.27,SW,214,2.9,6.8,36,0.00,,,0.00,0.0,WUHU216CR1000,2013-02-15 20:39:00,
2013-02-15 12:44:00,66.7,37.4,30.27,WNW,283,2.0,6.8,34,0.00,,,0.00,0.0,WUHU216CR1000,2013-02-15 20:44:00,
2013-02-15 12:50:00,67.4,38.7,30.27,NNW,348,3.1,6.8,35,0.00,,,0.00,0.0,WUHU216CR1000,2013-02-15 20:50:00,
2013-02-15 12:55:00,67.3,38.7,30.27,West,265,3.3,6.8,35,0.00,,,0.00,0.0,WUHU216CR1000,2013-02-15 20:55:00,
2013-02-15 13:00:00,67.4,38.1,30.27,WNW,295,0.0,6.8,34,0.00,,,0.00,0.0,WUHU216CR1000,2013-02-15 21:00:00,
2013-02-15 13:05:00,67.5,38.0,30.27,West,275,0.0,6.8,34,0.00,,,0.00,0.0,WUHU216CR1000,2013-02-15 21:05:00,
2013-02-15 13:10:00,67.4,38.3,30.27,WNW,302,2.2,6.8,34,0.00,,,0.00,0.0,WUHU216CR1000,2013-02-15 21:10:00,
2013-02-15 13:15:00,67.7,38.6,30.27,NNW,333,0.0,6.8,34,0.00,,,0.00,0.0,WUHU216CR1000,2013-02-15 21:15:00,
2013-02-15 13:20:00,67.7,38.2,30.27,NW,321,2.9,6.8,34,0.00,,,0.00,0.0,WUHU216CR1000,2013-02-15 21:20:00,
2013-02-15 13:25:00,68.1,38.1,30.27,WNW,285,5.3,6.8,33,0.00,,,0.00,0.0,WUHU216CR1000,2013-02-15 21:25:00,
2013-02-15 13:30:00,68.2,38.7,30.27,SW,224,1.5,6.8,34,0.00,,,0.00,0.0,WUHU216CR1000,2013-02-15 21:30:00,
2013-02-15 13:35:00,68.5,37.6,30.27,NE,34,0.0,6.8,32,0.00,,,0.00,0.0,WUHU216CR1000,2013-02-15 21:35:00,
2013-02-15 13:40:00,68.3,37.9,30.27,NNW,330,2.2,6.8,33,0.00,,,0.00,0.0,WUHU216CR1000,2013-02-15 21:40:00,
2013-02-15 13:45:00,68.2,38.4,30.27,NE,47,2.2,6.8,34,0.00,,,0.00,0.0,WUHU216CR1000,2013-02-15 21:45:00,
2013-02-15 13:50:00,68.5,38.8,30.27,WNW,295,0.4,6.8,34,0.00,,,0.00,0.0,WUHU216CR1000,2013-02-15 21:50:00,
2013-02-15 13:55:00,68.7,39.0,30.27,North,349,3.3,6.8,34,0.00,,,0.00,0.0,WUHU216CR1000,2013-02-15 21:55:00,
2013-02-15 14:00:00,69.3,38.5,30.27,WSW,250,2.2,6.8,32,0.00,,,0.00,0.0,WUHU216CR1000,2013-02-15 22:00:00,
2013-02-15 14:05:00,69.3,37.0,30.27,NNW,346,0.0,6.8,31,0.00,,,0.00,0.0,WUHU216CR1000,2013-02-15 22:05:00,
2013-02-15 14:11:00,69.2,37.8,30.24,NE,43,0.0,6.8,32,0.00,,,0.00,0.0,WUHU216CR1000,2013-02-15 22:11:00,
2013-02-15 14:16:00,69.3,37.2,30.24,West,281,3.3,6.8,31,0.00,,,0.00,0.0,WUHU216CR1000,2013-02-15 22:16:00,
2013-02-15 14:21:00,69.7,37.3,30.24,NW,304,1.1,6.8,30,0.00,,,0.00,0.0,WUHU216CR1000,2013-02-15 22:21:00,
2013-02-15 14:26:00,70.2,37.0,30.24,WSW,252,6.1,6.8,30,0.00,,,0.00,0.0,WUHU216CR1000,2013-02-15 22:26:00,
2013-02-15 14:31:00,70.1,37.6,30.24,WNW,297,2.6,6.8,30,0.00,,,0.00,0.0,WUHU216CR1000,2013-02-15 22:31:00,
2013-02-15 14:36:00,69.7,37.3,30.24,South,171,0.2,6.8,31,0.00,,,0.00,0.0,WUHU216CR1000,2013-02-15 22:36:00,
2013-02-15 14:41:00,69.6,37.4,30.24,SW,224,3.1,6.8,31,0.00,,,0.00,0.0,WUHU216CR1000,2013-02-15 22:41:00,
2013-02-15 14:46:00,70.3,37.5,30.24,West,281,0.0,6.8,30,0.00,,,0.00,0.0,WUHU216CR1000,2013-02-15 22:46:00,
2013-02-15 14:51:00,70.4,37.0,30.24,SSE,154,0.7,6.8,29,0.00,,,0.00,0.0,WUHU216CR1000,2013-02-15 22:51:00,
2013-02-15 14:56:00,70.6,38.2,30.24,SW,236,0.0,6.8,31,0.00,,,0.00,0.0,WUHU216CR1000,2013-02-15 22:56:00,
2013-02-15 15:01:00,70.1,37.5,30.24,West,261,2.6,6.8,30,0.00,,,0.00,0.0,WUHU216CR1000,2013-02-15 23:01:00,
2013-02-15 15:06:00,70.1,37.9,30.24,NNW,337,0.0,6.8,31,0.00,,,0.00,0.0,WUHU216CR1000,2013-02-15 23:06:00,
2013-02-15 15:11:00,70.2,37.4,30.24,NNW,328,0.0,6.8,30,0.00,,,0.00,0.0,WUHU216CR1000,2013-02-15 23:11:00,
2013-02-15 15:17:00,70.2,35.1,30.24,East,100,0.0,6.8,28,0.00,,,0.00,0.0,WUHU216CR1000,2013-02-15 23:17:00,
2013-02-15 15:22:00,70.6,36.4,30.24,SSE,159,2.4,6.8,29,0.00,,,0.00,0.0,WUHU216CR1000,2013-02-15 23:22:00,
2013-02-15 15:27:00,70.8,36.9,30.24,SW,227,0.0,6.8,29,0.00,,,0.00,0.0,WUHU216CR1000,2013-02-15 23:27:00,
2013-02-15 15:32:00,71.0,36.2,30.24,ESE,110,0.0,6.8,28,0.00,,,0.00,0.0,WUHU216CR1000,2013-02-15 23:32:00,
2013-02-15 15:37:00,70.9,35.5,30.24,NNW,343,0.0,6.8,27,0.00,,,0.00,0.0,WUHU216CR1000,2013-02-15 23:37:00,
2013-02-15 15:42:00,70.9,37.5,30.24,SW,231,0.0,6.8,29,0.00,,,0.00,0.0,WUHU216CR1000,2013-02-15 23:42:00,
2013-02-15 15:47:00,70.9,36.0,30.24,West,276,1.1,6.8,28,0.00,,,0.00,0.0,WUHU216CR1000,2013-02-15 23:47:00,
2013-02-15 15:52:00,70.8,35.9,30.24,North,351,0.0,6.8,28,0.00,,,0.00,0.0,WUHU216CR1000,2013-02-15 23:52:00,
2013-02-15 15:57:00,70.8,37.2,30.24,East,84,2.4,6.8,29,0.00,,,0.00,0.0,WUHU216CR1000,2013-02-15 23:57:00,
2013-02-15 16:02:00,70.9,38.5,30.24,NW,319,0.0,6.8,31,0.00,,,0.00,0.0,WUHU216CR1000,2013-02-16 00:02:00,
2013-02-15 16:07:00,70.9,37.8,30.24,WSW,238,0.0,6.8,30,0.00,,,0.00,0.0,WUHU216CR1000,2013-02-16 00:07:00,
2013-02-15 16:12:00,71.0,37.0,30.24,NW,305,0.0,6.8,29,0.00,,,0.00,0.0,WUHU216CR1000,2013-02-16 00:12:00,
2013-02-15 16:17:00,70.9,37.7,30.24,East,90,0.0,6.8,30,0.00,,,0.00,0.0,WUHU216CR1000,2013-02-16 00:17:00,
2013-02-15 16:22:00,70.6,39.2,30.24,East,96,0.0,6.8,32,0.00,,,0.00,0.0,WUHU216CR1000,2013-02-16 00:22:00,
2013-02-15 16:28:00,70.6,38.8,30.24,ESE,102,2.9,6.8,31,0.00,,,0.00,0.0,WUHU216CR1000,2013-02-16 00:28:00,
2013-02-15 16:33:00,70.6,39.3,30.24,South,172,0.0,6.8,32,0.00,,,0.00,0.0,WUHU216CR1000,2013-02-16 00:33:00,
2013-02-15 16:38:00,70.2,39.8,30.24,SW,226,2.6,6.8,33,0.00,,,0.00,0.0,WUHU216CR1000,2013-02-16 00:38:00,
2013-02-15 16:43:00,70.2,39.3,30.24,South,188,3.5,6.8,32,0.00,,,0.00,0.0,WUHU216CR1000,2013-02-16 00:43:00,
2013-02-15 16:48:00,69.9,39.7,30.24,SSE,164,3.9,6.8,33,0.00,,,0.00,0.0,WUHU216CR1000,2013-02-16 00:48:00,
2013-02-15 16:53:00,69.6,40.1,30.24,South,180,0.0,6.8,34,0.00,,,0.00,0.0,WUHU216CR1000,2013-02-16 00:53:00,
2013-02-15 16:58:00,69.6,40.9,30.24,South,184,0.9,6.8,35,0.00,,,0.00,0.0,WUHU216CR1000,2013-02-16 00:58:00,
2013-02-15 17:03:00,69.2,41.1,30.24,South,189,2.6,6.8,36,0.00,,,0.00,0.0,WUHU216CR1000,2013-02-16 01:03:00,
2013-02-15 17:08:00,68.6,41.0,30.24,SE,133,0.0,6.8,37,0.00,,,0.00,0.0,WUHU216CR1000,2013-02-16 01:08:00,
2013-02-15 17:13:00,68.1,40.9,30.24,SSE,159,3.5,6.8,37,0.00,,,0.00,0.0,WUHU216CR1000,2013-02-16 01:13:00,
2013-02-15 17:18:00,67.7,41.2,30.24,SW,226,0.0,6.8,38,0.00,,,0.00,0.0,WUHU216CR1000,2013-02-16 01:18:00,
2013-02-15 17:23:00,67.5,41.5,30.24,South,175,0.0,6.8,39,0.00,,,0.00,0.0,WUHU216CR1000,2013-02-16 01:23:00,
2013-02-15 17:28:00,67.0,41.4,30.24,South,185,0.0,6.8,39,0.00,,,0.00,0.0,WUHU216CR1000,2013-02-16 01:28:00,
2013-02-15 17:33:00,66.8,41.7,30.24,SSW,208,0.0,6.8,40,0.00,,,0.00,0.0,WUHU216CR1000,2013-02-16 01:33:00,
2013-02-15 17:38:00,66.0,41.7,30.24,SE,145,0.0,6.8,41,0.00,,,0.00,0.0,WUHU216CR1000,2013-02-16 01:38:00,
2013-02-15 17:43:00,65.4,42.0,30.24,SSW,208,0.0,6.8,42,0.00,,,0.00,0.0,WUHU216CR1000,2013-02-16 01:43:00,
2013-02-15 17:48:00,64.6,42.0,30.24,SW,225,0.0,6.8,44,0.00,,,0.00,0.0,WUHU216CR1000,2013-02-16 01:48:00,
2013-02-15 17:54:00,63.6,41.7,30.24,SSW,206,0.0,6.8,45,0.00,,,0.00,0.0,WUHU216CR1000,2013-02-16 01:54:00,
2013-02-15 17:59:00,63.1,42.0,30.24,ESE,107,0.0,6.8,46,0.00,,,0.00,0.0,WUHU216CR1000,2013-02-16 01:59:00,
2013-02-15 18:04:00,62.0,41.9,30.24,East,91,0.0,6.8,48,0.00,,,0.00,0.0,WUHU216CR1000,2013-02-16 02:04:00,
2013-02-15 18:09:00,61.0,42.1,30.24,ESE,120,0.0,6.8,50,0.00,,,0.00,0.0,WUHU216CR1000,2013-02-16 02:09:00,
2013-02-15 18:14:00,60.4,42.1,30.24,ESE,114,0.0,6.8,51,0.00,,,0.00,0.0,WUHU216CR1000,2013-02-16 02:14:00,
2013-02-15 18:19:00,59.7,41.8,30.24,ENE,67,0.0,6.8,52,0.00,,,0.00,0.0,WUHU216CR1000,2013-02-16 02:19:00,
2013-02-15 18:24:00,59.1,42.0,30.24,North,351,0.0,6.8,53,0.00,,,0.00,0.0,WUHU216CR1000,2013-02-16 02:24:00,
2013-02-15 18:29:00,58.7,42.0,30.24,NNE,26,0.0,6.8,54,0.00,,,0.00,0.0,WUHU216CR1000,2013-02-16 02:29:00,
2013-02-15 18:34:00,58.1,41.8,30.24,NNW,344,0.0,6.8,55,0.00,,,0.00,0.0,WUHU216CR1000,2013-02-16 02:34:00,
2013-02-15 18:39:00,57.9,42.1,30.24,NE,51,0.4,6.8,56,0.00,,,0.00,0.0,WUHU216CR1000,2013-02-16 02:39:00,
2013-02-15 18:45:00,56.8,41.9,30.27,ENE,66,0.0,6.8,57,0.00,,,0.00,0.0,WUHU216CR1000,2013-02-16 02:45:00,
2013-02-15 18:50:00,56.1,41.9,30.24,ESE,111,0.0,6.8,59,0.00,,,0.00,0.0,WUHU216CR1000,2013-02-16 02:50:00,
2013-02-15 18:55:00,55.8,42.3,30.27,SW,227,0.0,6.8,60,0.00,,,0.00,0.0,WUHU216CR1000,2013-02-16 02:55:00,
2013-02-15 19:00:00,55.3,42.4,30.27,East,91,0.0,6.8,62,0.00,,,0.00,0.0,WUHU216CR1000,2013-02-16 03:00:00,
2013-02-15 19:05:00,55.0,42.2,30.27,ENE,65,0.0,6.8,62,0.00,,,0.00,0.0,WUHU216CR1000,2013-02-16 03:05:00,
2013-02-15 19:10:00,54.8,42.2,30.27,ENE,70,0.0,6.8,62,0.00,,,0.00,0.0,WUHU216CR1000,2013-02-16 03:10:00,
2013-02-15 19:15:00,54.5,42.0,30.27,ENE,61,0.0,6.8,63,0.00,,,0.00,0.0,WUHU216CR1000,2013-02-16 03:15:00,
2013-02-15 19:20:00,54.0,42.0,30.27,NE,52,0.0,6.8,64,0.00,,,0.00,0.0,WUHU216CR1000,2013-02-16 03:20:00,
2013-02-15 19:26:00,53.3,41.7,30.27,East,87,0.0,6.8,65,0.00,,,0.00,0.0,WUHU216CR1000,2013-02-16 03:26:00,
2013-02-15 19:31:00,52.8,41.5,30.27,East,82,0.0,6.8,66,0.00,,,0.00,0.0,WUHU216CR1000,2013-02-16 03:31:00,
2013-02-15 19:36:00,52.5,41.6,30.27,ESE,106,0.0,6.8,66,0.00,,,0.00,0.0,WUHU216CR1000,2013-02-16 03:36:00,
2013-02-15 19:41:00,52.3,41.5,30.27,East,85,0.0,6.8,66,0.00,,,0.00,0.0,WUHU216CR1000,2013-02-16 03:41:00,
2013-02-15 19:46:00,52.0,41.3,30.27,ESE,104,0.0,6.8,67,0.00,,,0.00,0.0,WUHU216CR1000,2013-02-16 03:46:00,
2013-02-15 19:51:00,51.9,41.1,30.27,East,84,0.0,6.8,67,0.00,,,0.00,0.0,WUHU216CR1000,2013-02-16 03:51:00,
2013-02-15 19:56:00,51.8,41.0,30.27,SE,131,0.0,6.8,66,0.00,,,0.00,0.0,WUHU216CR1000,2013-02-16 03:56:00,
2013-02-15 20:01:00,51.6,40.9,30.27,NNE,33,0.0,6.8,67,0.00,,,0.00,0.0,WUHU216CR1000,2013-02-16 04:01:00,
2013-02-15 20:06:00,51.3,40.9,30.27,North,354,0.0,6.8,67,0.00,,,0.00,0.0,WUHU216CR1000,2013-02-16 04:06:00,
2013-02-15 20:11:00,51.2,40.8,30.27,SW,220,0.0,6.8,68,0.00,,,0.00,0.0,WUHU216CR1000,2013-02-16 04:11:00,
2013-02-15 20:16:00,50.7,40.6,30.27,NW,317,0.0,6.8,68,0.00,,,0.00,0.0,WUHU216CR1000,2013-02-16 04:16:00,
2013-02-15 20:21:00,50.6,40.6,30.27,North,9,0.0,6.8,68,0.00,,,0.00,0.0,WUHU216CR1000,2013-02-16 04:21:00,
2013-02-15 20:26:00,50.4,40.4,30.27,ENE,72,0.0,6.8,69,0.00,,,0.00,0.0,WUHU216CR1000,2013-02-16 04:26:00,
2013-02-15 20:31:00,50.2,40.7,30.27,SSE,164,0.0,6.8,70,0.00,,,0.00,0.0,WUHU216CR1000,2013-02-16 04:31:00,
2013-02-15 20:37:00,49.8,40.6,30.27,North,7,0.0,6.8,71,0.00,,,0.00,0.0,WUHU216CR1000,2013-02-16 04:37:00,
2013-02-15 20:42:00,49.5,40.5,30.27,NW,324,0.0,6.8,71,0.00,,,0.00,0.0,WUHU216CR1000,2013-02-16 04:42:00,
2013-02-15 20:47:00,49.1,40.2,30.27,NW,326,0.0,6.8,71,0.00,,,0.00,0.0,WUHU216CR1000,2013-02-16 04:47:00,
2013-02-15 20:52:00,49.3,40.2,30.27,NW,307,0.0,6.8,71,0.00,,,0.00,0.0,WUHU216CR1000,2013-02-16 04:52:00,
2013-02-15 20:58:00,48.8,39.9,30.27,North,7,0.0,6.8,71,0.00,,,0.00,0.0,WUHU216CR1000,2013-02-16 04:58:00,
2013-02-15 21:00:00,48.9,40.1,30.27,ESE,109,0.0,6.8,72,0.00,,,0.00,0.0,WUHU216CR1000,2013-02-16 05:00:00,
2013-02-15 21:01:00,48.9,40.1,30.27,ESE,114,0.0,6.8,72,0.00,,,0.00,0.0,WUHU216CR1000,2013-02-16 05:01:00,
2013-02-15 21:06:00,48.4,40.1,30.27,NNE,24,0.0,6.8,73,0.00,,,0.00,0.0,WUHU216CR1000,2013-02-16 05:06:00,
2013-02-15 21:11:00,48.0,39.9,30.27,WNW,301,0.0,6.8,73,0.00,,,0.00,0.0,WUHU216CR1000,2013-02-16 05:11:00,
2013-02-15 21:16:00,48.0,40.0,30.27,WNW,300,0.0,6.8,73,0.00,,,0.00,0.0,WUHU216CR1000,2013-02-16 05:16:00,
2013-02-15 21:21:00,47.7,39.6,30.27,NNW,332,0.0,6.8,73,0.00,,,0.00,0.0,WUHU216CR1000,2013-02-16 05:21:00,
2013-02-15 21:26:00,47.5,39.5,30.27,North,5,0.0,6.8,74,0.00,,,0.00,0.0,WUHU216CR1000,2013-02-16 05:26:00,
2013-02-15 21:31:00,47.3,39.5,30.27,WNW,290,0.0,6.8,74,0.00,,,0.00,0.0,WUHU216CR1000,2013-02-16 05:31:00,
2013-02-15 21:36:00,47.3,39.5,30.27,West,259,0.0,6.8,74,0.00,,,0.00,0.0,WUHU216CR1000,2013-02-16 05:36:00,
2013-02-15 21:41:00,47.2,39.5,30.27,West,281,0.0,6.8,74,0.00,,,0.00,0.0,WUHU216CR1000,2013-02-16 05:41:00,
2013-02-15 21:46:00,46.8,39.3,30.27,West,266,0.0,6.8,75,0.00,,,0.00,0.0,WUHU216CR1000,2013-02-16 05:46:00,
2013-02-15 21:51:00,47.0,39.4,30.27,West,266,0.0,6.8,75,0.00,,,0.00,0.0,WUHU216CR1000,2013-02-16 05:51:00,
2013-02-15 21:56:00,46.7,39.3,30.27,West,266,0.0,6.8,75,0.00,,,0.00,0.0,WUHU216CR1000,2013-02-16 05:56:00,
2013-02-15 22:01:00,46.6,39.2,30.27,West,265,0.0,6.8,75,0.00,,,0.00,0.0,WUHU216CR1000,2013-02-16 06:01:00,
2013-02-15 22:07:00,46.4,39.0,30.27,West,273,0.0,6.8,75,0.00,,,0.00,0.0,WUHU216CR1000,2013-02-16 06:07:00,
2013-02-15 22:12:00,46.5,39.0,30.27,West,270,0.0,6.8,75,0.00,,,0.00,0.0,WUHU216CR1000,2013-02-16 06:12:00,
2013-02-15 22:17:00,46.5,39.0,30.27,West,266,0.0,6.8,75,0.00,,,0.00,0.0,WUHU216CR1000,2013-02-16 06:17:00,
2013-02-15 22:22:00,46.5,39.0,30.27,West,266,0.0,6.8,75,0.00,,,0.00,0.0,WUHU216CR1000,2013-02-16 06:22:00,
2013-02-15 22:27:00,46.6,39.0,30.27,WNW,283,0.0,6.8,75,0.00,,,0.00,0.0,WUHU216CR1000,2013-02-16 06:27:00,
2013-02-15 22:32:00,46.7,39.1,30.27,WNW,283,0.0,6.8,75,0.00,,,0.00,0.0,WUHU216CR1000,2013-02-16 06:32:00,
2013-02-15 22:37:00,46.6,38.9,30.27,NW,317,0.0,6.8,74,0.00,,,0.00,0.0,WUHU216CR1000,2013-02-16 06:37:00,
2013-02-15 22:42:00,46.5,38.9,30.27,NW,305,0.0,6.8,75,0.00,,,0.00,0.0,WUHU216CR1000,2013-02-16 06:42:00,
2013-02-15 22:47:00,46.5,38.9,30.27,West,277,0.0,6.8,75,0.00,,,0.00,0.0,WUHU216CR1000,2013-02-16 06:47:00,
2013-02-15 22:52:00,46.5,38.9,30.27,West,280,0.0,6.8,75,0.00,,,0.00,0.0,WUHU216CR1000,2013-02-16 06:52:00,
2013-02-15 22:57:00,46.4,38.7,30.27,West,274,0.0,6.8,75,0.00,,,0.00,0.0,WUHU216CR1000,2013-02-16 06:57:00,
2013-02-15 23:02:00,46.2,38.6,30.27,WNW,286,0.0,6.8,75,0.00,,,0.00,0.0,WUHU216CR1000,2013-02-16 07:02:00,
2013-02-15 23:07:00,46.2,38.7,30.27,NW,309,0.0,6.8,75,0.00,,,0.00,0.0,WUHU216CR1000,2013-02-16 07:07:00,
2013-02-15 23:13:00,45.9,38.7,30.27,WNW,289,0.0,6.8,76,0.00,,,0.00,0.0,WUHU216CR1000,2013-02-16 07:13:00,
2013-02-15 23:18:00,45.1,38.3,30.27,NW,323,0.0,6.8,77,0.00,,,0.00,0.0,WUHU216CR1000,2013-02-16 07:18:00,
2013-02-15 23:23:00,44.6,38.1,30.27,SE,132,0.0,6.8,78,0.00,,,0.00,0.0,WUHU216CR1000,2013-02-16 07:23:00,
2013-02-15 23:28:00,44.2,37.9,30.27,East,81,0.0,6.8,79,0.00,,,0.00,0.0,WUHU216CR1000,2013-02-16 07:28:00,
2013-02-15 23:33:00,43.8,37.7,30.27,NNE,29,0.0,6.8,79,0.00,,,0.00,0.0,WUHU216CR1000,2013-02-16 07:33:00,
2013-02-15 23:38:00,43.7,37.8,30.27,NW,324,0.0,6.8,80,0.00,,,0.00,0.0,WUHU216CR1000,2013-02-16 07:38:00,
2013-02-15 23:43:00,43.5,37.7,30.27,NW,315,0.0,6.8,80,0.00,,,0.00,0.0,WUHU216CR1000,2013-02-16 07:43:00,
2013-02-15 23:48:00,43.7,37.7,30.27,WNW,302,0.0,6.8,79,0.00,,,0.00,0.0,WUHU216CR1000,2013-02-16 07:48:00,
2013-02-15 23:53:00,43.8,37.9,30.27,WNW,302,0.0,6.8,79,0.00,,,0.00,0.0,WUHU216CR1000,2013-02-16 07:53:00,
2013-02-15 23:58:00,43.8,37.9,30.27,WSW,251,0.0,6.8,80,0.00,,,0.00,0.0,WUHU216CR1000,2013-02-16 07:58:00,